Regional Weather Roundup
Issued by NWS

Home | Current Version | Previous Version | Graphics & Text | Print | Product List | Glossary On
Versions: 1 2 3 4 5 6 7 8 9 10 11 12 13 14 15 16 17 18 19 20 21 22 23 24 25 26 27 28 29 30 31 32 33 34 35 36 37 38 39 40 41 42 43 44 45 46 47 48 49 50
520
ASUS43 KOAX 160802
RWRNE

WEATHER ROUNDUP FOR NEBRASKA
NATIONAL WEATHER SERVICE OMAHA NE
200 AM CST TUE JAN 16 2018

NOTES: SATELLITE DATA IS BEING USED TO AUGMENT CLOUD COVER ABOVE
       12000 FEET.
       "FAIR" INDICATES FEW OR NO CLOUDS BELOW 12,000 FEET WITH NO
       SIGNIFICANT WEATHER AND/OR OBSTRUCTIONS TO VISIBILITY.


NEZ001>004-019>022-054>056-160900-
NEBRASKA PANHANDLE

CITY           SKY/WX    TMP DP  RH WIND       PRES   REMARKS
SCOTTSBLUFF    CLEAR     -7 -12  79 N6        30.60F WCI -20
ALLIANCE       CLEAR    -17 -20  86 W7        30.60F WCI -33
CHADRON        CLEAR    -14 -19  79 W5        30.67F WCI -26
GORDON         FAIR     -10 -15  77 W8        30.62F WCI -26
KIMBALL        CLEAR     -1  -6  76 W6        30.51F WCI -12
SIDNEY         CLEAR     -4  -9  79 W5        30.57F WCI -15
$$

NEZ057>060-069>072-079>082-160900-
SOUTHWEST NEBRASKA

CITY           SKY/WX    TMP DP  RH WIND       PRES   REMARKS
NORTH PLATTE   CLEAR     -2 -12  62 NW13      30.68F WCI -20
IMPERIAL       CLEAR     -1  -8  72 NW10      30.66F WCI -17
LEXINGTON      CLEAR      0  -9  65 NW14G21   30.70S WCI -19
MCCOOK         CLEAR      1  -8  66 NW13      30.70F WCI -17
OGALLALA       CLEAR     -4 -10  76 W3        30.67S
$$

NEZ005>010-023>029-035>040-094-160900-
NORTH CENTRAL NEBRASKA

CITY           SKY/WX    TMP DP  RH WIND       PRES   REMARKS
VALENTINE      CLEAR     -8 -15  71 NW8       30.71F WCI -24
AINSWORTH      MOCLDY    -6 -12  74 NW13      30.69F WCI -25
BROKEN BOW     CLEAR     -3 -13  62 N18       30.67S WCI -25
O`NEILL        CLOUDY    -3  -8  79 NW21      30.70F WCI -27
ORD            CLOUDY    -2 -10  69 NW17      30.69F WCI -23
$$

NEZ041-046>049-061>064-073>077-083>087-160900-
SOUTH CENTRAL NEBRASKA

CITY           SKY/WX    TMP DP  RH WIND       PRES   REMARKS
GRAND ISLAND   PTCLDY    -2  -9  72 NW16      30.69S WCI -23
AURORA         CLOUDY    -1  -8  69 N20       30.69S WCI -23
HASTINGS       PTCLDY    -2 -10  69 NW15      30.69S WCI -22
HEBRON         CLEAR     -1  -8  71 NW8       30.71F WCI -15
HOLDREGE       CLEAR     -1  -8  71 N14G24    30.69R WCI -20
KEARNEY        CLEAR     -3 -10  72 N17       30.69F WCI -24
YORK           FLURRIES   0  -6  78 NW15G23   30.67F WCI -20
$$

NEZ011>018-030>034-042>045-160900-
NORTHEAST NEBRASKA

CITY           SKY/WX    TMP DP  RH WIND       PRES   REMARKS
NORFOLK        CLOUDY    -3  -9  75 NW21G29   30.69R WCI -26
ALBION         CLOUDY     0  -8  71 NW17G26   30.68S WCI -21
BLAIR          MOCLDY    -2  -9  74 NW15      30.67S WCI -22
COLUMBUS       PTCLDY    -3  -9  75 NW20      30.71F WCI -26
FREMONT        PTCLDY    -1  -8  74 NW14      30.70S WCI -21
TEKAMAH        CLOUDY    -2 -10  69 NW14      30.72S WCI -21
WAYNE          CLOUDY    -3  -9  75 NW14      30.71R WCI -23
$$

NEZ050>053-065>068-078-088>093-160900-
SOUTHEAST NEBRASKA

CITY           SKY/WX    TMP DP  RH WIND       PRES   REMARKS
LINCOLN        CLOUDY    -1  -9  68 N16       30.73S WCI -21
OMAHA EPPLEY   CLEAR     -2 -10  69 NW15      30.70S WCI -22
BEATRICE       MOCLDY     0  -7  73 NW15      30.71S WCI -19
FALLS CITY     CLEAR     -3 -10  72 NW9       30.71R WCI -19
NEBRASKA CITY  PTCLDY    -4  -8  79 NW7       30.68S WCI -17
PLATTSMOUTH    PTCLDY    -2  -9  72 NW18      30.68R WCI -24
$$

NEZ044-045-051>053-067-160900-
OMAHA AREA

CITY           SKY/WX    TMP DP  RH WIND       PRES   REMARKS
OMAHA EPPLEY   CLEAR     -2 -10  69 NW15      30.70S WCI -22
BLAIR          MOCLDY    -2  -9  74 NW15      30.67S WCI -22
FREMONT        PTCLDY    -1  -8  74 NW14      30.70S WCI -21
MILLARD        CLEAR      0  -8  70 NW8       30.72S WCI -14
OFFUTT AFB     PTCLDY    -2 -11  65 NW13G20   30.70S WCI -21
PLATTSMOUTH    PTCLDY    -2  -9  72 NW18      30.68R WCI -24
WAHOO          CLOUDY     0  -8  70 MISG      30.70S
$$




USA.gov is the U.S. government's official web portal to all federal, state and local government web resources and services.